Location: Beuerbach
(48.1459°N, 10.9174°E)
Time: 03:45:19
(UTC+00:00)

Cosmos 1242 Rocket - Pass Details

Date: 23 May 2024
Orbit: 322 x 337 km, 81.1° (Epoch: 13 June)

Event Time Altitude Azimuth Distance (km) Brightness Sun altitude
Exits shadow 01:16:11 35° 159° (SSE) 612 2.7 -15.9°
Maximum altitude 01:17:09 56° 98° (E) 440 2.4 -15.8°
Drops below altitude 10° 01:20:03 10° 19° (NNE) 1,363 6.1 -15.6°
Sets 01:22:03 0° 16° (NNE) 2,218 7.5 -15.4°
